Weather History for PHBK - June, 2013

Change the Weather History Date:

Wednesday, June 12, 2013

  Actual Average (PHLI) Record (PHLI)
Temperature  
Mean Temperature 78 °F 78 °F  
Max Temperature 84 °F 83 °F 86 °F (1960)
Min Temperature 72 °F 73 °F 67 °F (1987)
Degree Days  
Heating Degree Days 0 0  
Month to date heating degree days 0  
Since 1 June heating degree days 0  
Since 1 July heating degree days 0  
Cooling Degree Days 13 13  
Month to date cooling degree days 152  
Year to date cooling degree days 1391  
Since 1 June cooling degree days 152  
Growing Degree Days 28 (Base 50)    
Moisture  
Dew Point 66 °F    
Average Humidity 66    
Maximum Humidity 87    
Minimum Humidity 53    
Precipitation  
Precipitation 0.00 in 0.05 in 1.01 in (2008)
Month to date precipitation 0.60  
Year to date precipitation 16.44  
Snow  
Snow 0.00 in - - ()
Month to date snowfall  
Since 1 June snowfall  
Since 1 July snowfall  
Snow Depth -    
Sea Level Pressure  
Sea Level Pressure 30.06 in    
Wind  
Wind Speed 4 mph (NW)    
Max Wind Speed 14 mph    
Max Gust Speed -    
Visibility 10 miles    
Events      
T = Trace of Precipitation, MM = Missing Value Source: NWS Daily Summary

Daily Weather History Graph

Daily Weather History Graph

Search for Another Location

Airport or City:

Trip Planner

Search our weather history database for the weather conditions in past years. The results will help you decide how hot, cold, wet, or windy it might be!

Date:

Astronomy

Jun. 12, 2013 Rise Set
Actual Time 5:55 AM HST 7:23 PM HST
Civil Twilight 5:30 AM HST 7:48 PM HST
Nautical Twilight 5:00 AM HST 8:17 PM HST
Astronomical Twilight 4:29 AM HST 8:48 PM HST
Moon 9:25 AM HST (6/12) 10:29 PM HST (6/12)
Length of Visible Light 14h 17m
Length of Day
13h 27m
Waxing Crescent, 16% of the Moon is Illuminated
Jun 12
Waxing Crescent
Jun 16
First Quarter
Jun 23
Full
Jun 29
Last Quarter
Jul 7
New

Hourly Weather History & Observations

Time (HST) Temp. Heat Index Dew Point Humidity Pressure Visibility Wind Dir Wind Speed Gust Speed Precip Events Conditions
12:56 AM 73.9 °F - 64.0 °F 71% 30.04 in 10.0 mi Calm Calm - N/A   Partly Cloudy
1:56 AM 73.0 °F - 63.0 °F 71% 30.03 in 10.0 mi East 4.6 mph - N/A   Scattered Clouds
2:56 AM 75.0 °F - 64.9 °F 71% 30.02 in 10.0 mi Calm Calm - N/A   Overcast
3:56 AM 73.9 °F - 66.0 °F 76% 30.02 in 10.0 mi NE 3.5 mph - N/A   Overcast
4:56 AM 73.0 °F - 66.9 °F 81% 30.04 in 10.0 mi SE 6.9 mph - N/A   Overcast
5:56 AM 72.0 °F - 68.0 °F 87% 30.05 in 10.0 mi Calm Calm - 0.00 in   Overcast
6:56 AM 75.0 °F - 68.0 °F 79% 30.06 in 10.0 mi Calm Calm - N/A   Overcast
7:56 AM 79.0 °F - 68.0 °F 69% 30.08 in 10.0 mi NNW 3.5 mph - N/A   Clear
8:56 AM 78.1 °F - 69.1 °F 74% 30.08 in 10.0 mi WSW 5.8 mph - N/A   Scattered Clouds
9:56 AM 80.1 °F 82.9 °F 69.1 °F 69% 30.08 in 10.0 mi NW 9.2 mph - N/A   Clear
10:56 AM 81.0 °F 84.1 °F 69.1 °F 67% 30.07 in 10.0 mi WNW 11.5 mph - N/A   Clear
11:56 AM 82.9 °F 85.8 °F 68.0 °F 60% 30.08 in 10.0 mi NNW 13.8 mph - N/A   Scattered Clouds
12:56 PM 82.9 °F 85.0 °F 66.0 °F 56% 30.06 in 10.0 mi WNW 10.4 mph - N/A   Partly Cloudy
1:56 PM 84.0 °F 86.5 °F 66.9 °F 56% 30.04 in 10.0 mi WNW 10.4 mph - N/A   Partly Cloudy
2:56 PM 84.9 °F 87.1 °F 66.0 °F 53% 30.04 in 10.0 mi WNW 9.2 mph - N/A   Clear
3:56 PM 84.0 °F 86.3 °F 66.0 °F 55% 30.03 in 10.0 mi WNW 6.9 mph - N/A   Clear
4:56 PM 84.0 °F 85.8 °F 64.9 °F 53% 30.02 in 10.0 mi West 9.2 mph - N/A   Clear
5:56 PM 82.9 °F 84.6 °F 64.9 °F 54% 30.03 in 10.0 mi WNW 5.8 mph - N/A   Mostly Cloudy
6:56 PM 82.0 °F 84.5 °F 66.9 °F 60% 30.04 in 10.0 mi WNW 6.9 mph - N/A   Overcast
7:56 PM 81.0 °F 82.7 °F 64.9 °F 58% 30.06 in 10.0 mi Calm Calm - N/A   Scattered Clouds
8:56 PM 79.0 °F - 64.0 °F 60% 30.08 in 10.0 mi Variable 3.5 mph - N/A   Clear
9:56 PM 75.9 °F - 63.0 °F 64% 30.10 in 10.0 mi Calm Calm - N/A   Clear
10:56 PM 75.9 °F - 62.1 °F 62% 30.11 in 10.0 mi Calm Calm - N/A   Clear
11:56 PM 73.9 °F - 63.0 °F 68% 30.10 in 10.0 mi ESE 4.6 mph - N/A   Partly Cloudy